H1 CPF 2 NER 2025 10 3 9 276 01 glonass137 H2 1705501 9137 42939 2025 10 3 0 0 0 2025 10 6 23 45 0 900 1 1 0 0 0 1 H9 10 0 60951 0.00000 0 -22411663.041 -7968559.814 9257113.187 10 0 60951 900.00000 0 -21119707.087 -7707811.203 12085162.084 10 0 60951 1800.00000 0 -19479352.074 -7523310.189 14678906.025 10 0 60951 2700.00000 0 -17528468.624 -7461163.578 16988080.501 10 0 60951 3600.00000 0 -15315168.869 -7559972.958 18967933.864 10 0 60951 4500.00000 0 -12895976.252 -7849025.500 20580088.024 10 0 60951 5400.00000 0 -10333658.983 -8346887.617 21793276.731 10 0 60951 6300.00000 0 -7694816.280 -9060460.837 22583947.882 10 0 60951 7200.00000 0 -5047316.599 -9984540.008 22936718.788 10 0 60951 8100.00000 0 -2457692.983 -11101893.170 22844675.953 10 0 60951 9000.00000 0 11397.646 -12383860.857 22309513.647 10 0 60951 9900.00000 0 2303546.942 -13791451.054 21341508.329 10 0 60951 10800.00000 0 4370701.916 -15276885.455 19959328.836 10 0 60951 11700.00000 0 6174919.402 -16785533.758 18189685.130 10 0 60951 12600.00000 0 7689695.821 -18258156.337 16066821.379 10 0 60951 13500.00000 0 8900817.375 -19633362.386 13631862.032 10 0 60951 14400.00000 0 9806695.490 -20850181.176 10932022.462 10 0 60951 15300.00000 0 10418173.728 -21850638.708 8019698.621 10 0 60951 16200.00000 0 10757814.553 -22582231.340 4951452.683 10 0 60951 17100.00000 0 10858696.277 -23000191.737 1786914.115 10 0 60951 18000.00000 0 10762771.274 -23069450.724 -1412382.390 10 0 60951 18900.00000 0 10518855.431 -22766211.306 -4584199.061 10 0 60951 19800.00000 0 10180334.552 -22079066.966 -7666813.198 10 0 60951 20700.00000 0 9802685.794 -21009615.950 -10600226.641 10 0 60951 21600.00000 0 9440920.183 -19572544.657 -13327341.992 10 0 60951 22500.00000 0 9147055.573 -17795175.426 -15795081.753 10 0 60951 23400.00000 0 8967728.228 -15716497.133 -17955427.728 10 0 60951 24300.00000 0 8942045.087 -13385718.822 -19766359.879 10 0 60951 25200.00000 0 9099768.446 -10860406.784 -21192676.048 10 0 60951 26100.00000 0 9459910.402 -8204283.002 -22206676.532 10 0 60951 27000.00000 0 10029796.887 -5484776.937 -22788700.433 10 0 60951 27900.00000 0 10804641.018 -2770432.762 -22927503.729 10 0 60951 28800.00000 0 11767643.896 -128279.988 -22620472.227 10 0 60951 29700.00000 0 12890618.592 2378723.418 -21873665.844 10 0 60951 30600.00000 0 14135111.042 4694069.592 -20701693.852 10 0 60951 31500.00000 0 15453970.625 6769802.905 -19127423.997 10 0 60951 32400.00000 0 16793304.296 8568259.309 -17181531.526 10 0 60951 33300.00000 0 18094732.122 10063371.890 -14901897.153 10 0 60951 34200.00000 0 19297849.329 11241489.778 -12332865.901 10 0 60951 35100.00000 0 20342791.379 12101678.071 -9524381.396 10 0 60951 36000.00000 0 21172794.281 12655488.074 -6531012.586 10 0 60951 36900.00000 0 21736642.491 12926209.378 -3410891.994 10 0 60951 37800.00000 0 21990901.605 12947636.938 -224586.261 10 0 60951 38700.00000 0 21901842.012 12762406.558 2966078.904 10 0 60951 39600.00000 0 21446972.784 12419970.135 6099216.447 10 0 60951 40500.00000 0 20616121.390 11974296.968 9114075.087 10 0 60951 41400.00000 0 19412013.896 11481398.682 11952212.725 10 0 60951 42300.00000 0 17850331.194 10996782.404 14558623.630 10 0 60951 43200.00000 0 15959238.614 10572939.676 16882797.972 10 0 60951 44100.00000 0 13778408.079 10256976.675 18879693.817 10 0 60951 45000.00000 0 11357572.943 10088485.317 20510603.410 10 0 60951 45900.00000 0 8754674.834 10097744.546 21743897.778 10 0 60951 46800.00000 0 6033678.450 10304327.246 22555635.959 10 0 60951 47700.00000 0 3262143.909 10716171.366 22930027.684 10 0 60951 48600.00000 0 508656.043 11329154.570 22859740.904 10 0 60951 49500.00000 0 -2159784.111 12127190.862 22346048.361 10 0 60951 50400.00000 0 -4680298.706 13082846.082 21398810.064 10 0 60951 51300.00000 0 -6996499.200 14158447.575 20036291.509 10 0 60951 52200.00000 0 -9060581.958 15307642.772 18284820.238 10 0 60951 53100.00000 0 -10835066.935 16477342.514 16178286.398 10 0 60951 54000.00000 0 -12294107.631 17609968.647 13757495.798 10 0 60951 54900.00000 0 -13424317.999 18645912.243 11069386.893 10 0 60951 55800.00000 0 -14225081.921 19526099.445 8166125.980 10 0 60951 56700.00000 0 -14708332.532 20194556.990 5104097.482 10 0 60951 57600.00000 0 -14897810.808 20600868.810 1942808.612 10 0 60951 58500.00000 0 -14827834.934 20702419.272 -1256270.187 10 0 60951 59400.00000 0 -14541632.761 20466327.197 -4430906.081 10 0 60951 60300.00000 0 -14089308.429 19870987.639 -7519321.869 10 0 60951 61200.00000 0 -13525529.972 18907155.004 -10461406.501 10 0 60951 62100.00000 0 -12907036.667 17578520.384 -13199893.550 10 0 60951 63000.00000 0 -12290072.638 15901757.549 -15681483.714 10 0 60951 63900.00000 0 -11727856.343 13906034.650 -17857888.610 10 0 60951 64800.00000 0 -11268193.870 11632011.271 -19686774.989 10 0 60951 65700.00000 0 -10951337.749 9130362.391 -21132590.653 10 0 60951 66600.00000 0 -10808182.249 6459890.709 -22167255.944 10 0 60951 67500.00000 0 -10858871.646 3685306.009 -22770707.544 10 0 60951 68400.00000 0 -11111880.243 874764.053 -22931284.430 10 0 60951 69300.00000 0 -11563602.772 -1902732.604 -22645948.971 10 0 60951 70200.00000 0 -12198472.168 -4579963.974 -21920339.425 10 0 60951 71100.00000 0 -12989599.385 -7094043.290 -20768653.383 10 0 60951 72000.00000 0 -13899907.901 -9388783.515 -19213364.857 10 0 60951 72900.00000 0 -14883714.790 -11416782.217 -17284780.936 10 0 60951 73800.00000 0 -15888691.453 -13141139.207 -15020446.875 10 0 60951 74700.00000 0 -16858121.170 -14536736.776 -12464411.424 10 0 60951 75600.00000 0 -17733358.212 -15591030.694 -9666366.851 10 0 60951 76500.00000 0 -18456384.777 -16304320.683 -6680680.488 10 0 60951 77400.00000 0 -18972357.971 -16689490.766 -3565336.835 10 0 60951 78300.00000 0 -19232039.471 -16771232.146 -380810.912 10 0 60951 79200.00000 0 -19194005.538 -16584782.851 2811105.118 10 0 60951 80100.00000 0 -18826544.288 -16174238.486 5948499.112 10 0 60951 81000.00000 0 -18109160.364 -15590506.348 8970536.631 10 0 60951 81900.00000 0 -17033623.622 -14888989.771 11818636.053 10 0 60951 82800.00000 0 -15604517.561 -14127100.720 14437598.479 10 0 60951 83700.00000 0 -13839264.154 -13361705.478 16776671.035 10 0 60951 84600.00000 0 -11767623.401 -12646610.811 18790523.540 10 0 60951 85500.00000 0 -9430687.753 -12030196.001 20440120.304 10 0 60952 0.00000 0 -6879412.550 -11553289.913 21693470.899 10 0 60952 900.00000 0 -4172740.999 -11247381.564 22526246.695 10 0 60952 1800.00000 0 -1375403.724 -11133239.638 22922250.240 10 0 60952 2700.00000 0 1444521.777 -11219997.840 22873731.058 10 0 60952 3600.00000 0 4218188.713 -11504745.313 22381540.084 10 0 60952 4500.00000 0 6878591.433 -11972639.410 21455120.251 10 0 60952 5400.00000 0 9363101.565 -12597536.839 20112332.744 10 0 60952 6300.00000 0 11615825.692 -13343117.591 18379121.417 10 0 60952 7200.00000 0 13589687.385 -14164455.426 16289020.827 10 0 60952 8100.00000 0 15248147.588 -15009969.866 13882516.272 10 0 60952 9000.00000 0 16566491.887 -15823678.318 11206267.114 10 0 60952 9900.00000 0 17532631.097 -16547654.010 8312207.520 10 0 60952 10800.00000 0 18147381.707 -17124586.224 5256541.417 10 0 60952 11700.00000 0 18424214.369 -17500334.460 2098650.800 10 0 60952 12600.00000 0 18388481.228 -17626368.039 -1100061.255 10 0 60952 13500.00000 0 18076154.753 -17461986.880 -4277370.011 10 0 60952 14400.00000 0 17532131.759 -16976228.301 -7371446.869 10 0 60952 15300.00000 0 16808174.907 -16149377.791 -10322070.878 10 0 60952 16200.00000 0 15960579.456 -14974018.467 -13071809.366 10 0 60952 17100.00000 0 15047664.782 -13455573.460 -15567143.739 10 0 60952 18000.00000 0 14127197.634 -11612317.040 -17759517.637 10 0 60952 18900.00000 0 13253856.878 -9474852.948 -19606286.468 10 0 60952 19800.00000 0 12476847.481 -7085080.956 -21071549.480 10 0 60952 20700.00000 0 11837764.964 -4494694.362 -22126848.107 10 0 60952 21600.00000 0 11368800.558 -1763270.797 -22751717.216 10 0 60952 22500.00000 0 11091362.648 1043964.280 -22934078.930 10 0 60952 23400.00000 0 11015172.248 3858608.415 -22670471.853 10 0 60952 24300.00000 0 11137870.036 6611684.751 -21966111.841 10 0 60952 25200.00000 0 11445150.815 9236268.499 -20834783.644 10 0 60952 26100.00000 0 11911418.986 11670028.559 -19298566.029 10 0 60952 27000.00000 0 12500936.660 13857579.311 -17387396.079 10 0 60952 27900.00000 0 13169415.350 15752545.650 -15138481.437 10 0 60952 28800.00000 0 13865983.558 17319256.351 -12595572.153 10 0 60952 29700.00000 0 14535446.803 18533996.503 -9808106.446 10 0 60952 30600.00000 0 15120744.382 19385768.195 -6830247.124 10 0 60952 31500.00000 0 15565498.958 19876529.192 -3719827.594 10 0 60952 32400.00000 0 15816551.207 20020901.220 -537228.082 10 0 60952 33300.00000 0 15826372.466 19845361.638 2655795.969 10 0 60952 34200.00000 0 15555253.549 19386953.812 5797310.401 10 0 60952 35100.00000 0 14973177.372 18691571.574 8826400.532 10 0 60952 36000.00000 0 14061296.385 17811890.776 11684347.850 10 0 60952 36900.00000 0 12812952.412 16805035.478 14315762.642 10 0 60952 37800.00000 0 11234195.655 15730077.160 16669651.002 10 0 60952 38700.00000 0 9343780.484 14645471.943 18700396.166 10 0 60952 39600.00000 0 7172637.346 13606543.184 20368635.832 10 0 60952 40500.00000 0 4762841.760 12663114.545 21642019.270 10 0 60952 41400.00000 0 2166122.053 11857392.244 22495830.319 10 0 60952 42300.00000 0 -558033.558 11222184.641 22913464.818 10 0 60952 43200.00000 0 -3344593.471 10779533.312 22886753.656 10 0 60952 44100.00000 0 -6125432.456 10539812.628 22416125.316 10 0 60952 45000.00000 0 -8831914.593 10501335.558 21510604.542 10 0 60952 45900.00000 0 -11397503.652 10650482.411 20187646.642 10 0 60952 46800.00000 0 -13760293.812 10962347.577 18472809.762 10 0 60952 47700.00000 0 -15865356.468 11401877.723 16399270.456 10 0 60952 48600.00000 0 -17666806.103 11925454.274 14007190.788 10 0 60952 49500.00000 0 -19129499.490 12482854.213 11342948.079 10 0 60952 50400.00000 0 -20230297.305 13019507.010 8458241.309 10 0 60952 51300.00000 0 -20958835.223 13478952.569 5409090.820 10 0 60952 52200.00000 0 -21317772.226 13805396.307 2254750.365 10 0 60952 53100.00000 0 -21322505.327 13946252.692 -943447.258 10 0 60952 54000.00000 0 -21000362.703 13854568.621 -4123288.188 10 0 60952 54900.00000 0 -20389309.531 13491222.980 -7222895.051 10 0 60952 55800.00000 0 -19536221.436 12826807.790 -10181939.420 10 0 60952 56700.00000 0 -18494799.057 11843109.877 -12942824.593 10 0 60952 57600.00000 0 -17323212.536 10534128.941 -15451814.648 10 0 60952 58500.00000 0 -16081576.157 8906587.553 -17660086.906 10 0 60952 59400.00000 0 -14829360.527 6979910.321 -19524686.737 10 0 60952 60300.00000 0 -13622852.112 4785672.011 -21009365.749 10 0 60952 61200.00000 0 -12512767.665 2366536.895 -22085286.987 10 0 60952 62100.00000 0 -11542124.196 -225266.915 -22731583.616 10 0 60952 63000.00000 0 -10744453.985 -2929874.926 -22935760.601 10 0 60952 63900.00000 0 -10142439.289 -5682035.438 -22693932.101 10 0 60952 64800.00000 0 -9747023.447 -8413587.066 -22010890.503 10 0 60952 65700.00000 0 -9557034.808 -11056061.864 -20900006.316 10 0 60952 66600.00000 0 -9559338.239 -13543306.075 -19382961.324 10 0 60952 67500.00000 0 -9729506.718 -15814010.073 -17489320.607 10 0 60952 68400.00000 0 -10032983.640 -17814042.871 -15255951.991 10 0 60952 69300.00000 0 -10426685.839 -19498494.791 -12726304.472 10 0 60952 70200.00000 0 -10860978.891 -20833344.187 -9949559.794 10 0 60952 71100.00000 0 -11281940.626 -21796679.823 -6979673.809 10 0 60952 72000.00000 0 -11633816.747 -22379429.099 -3874326.437 10 0 60952 72900.00000 0 -11861564.434 -22585563.028 -693800.772 10 0 60952 73800.00000 0 -11913376.259 -22431770.720 2500186.726 10 0 60952 74700.00000 0 -11743077.604 -21946618.342 5645682.109 10 0 60952 75600.00000 0 -11312296.263 -21169228.965 8681692.606 10 0 60952 76500.00000 0 -10592312.585 -20147539.654 11549364.937 10 0 60952 77400.00000 0 -9565511.965 -18936209.634 14193120.601 10 0 60952 78300.00000 0 -8226378.240 -17594267.655 16561726.578 10 0 60952 79200.00000 0 -6581985.699 -16182597.288 18609281.273 10 0 60952 80100.00000 0 -4651968.294 -14761365.316 20296097.291 10 0 60952 81000.00000 0 -2467966.287 -13387500.437 21589464.758 10 0 60952 81900.00000 0 -72572.086 -12112327.146 22464281.148 10 0 60952 82800.00000 0 2482182.296 -10979453.048 22903536.071 10 0 60952 83700.00000 0 5136734.912 -10022997.226 22898642.059 10 0 60952 84600.00000 0 7826223.118 -9266233.116 22449605.096 10 0 60952 85500.00000 0 10482941.454 -8720702.234 21565031.380 10 0 60953 0.00000 0 13038927.492 -8385835.657 20261969.819 10 0 60953 900.00000 0 15428570.966 -8249098.975 18565591.663 10 0 60953 1800.00000 0 17591135.354 -8286655.264 16508714.320 10 0 60953 2700.00000 0 19473092.222 -8464517.998 14131175.053 10 0 60953 3600.00000 0 21030167.955 -8740146.251 11479067.244 10 0 60953 4500.00000 0 22229018.790 -9064415.080 8603852.438 10 0 60953 5400.00000 0 23048463.673 -9383878.090 5561364.806 10 0 60953 6300.00000 0 23480222.947 -9643226.452 2410726.957 10 0 60953 7200.00000 0 23529131.407 -9787839.855 -786801.752 10 0 60953 8100.00000 0 23212816.564 -9766320.650 -3969021.627 10 0 60953 9000.00000 0 22560855.374 -9532902.630 -7074009.838 10 0 60953 9900.00000 0 21613445.133 -9049631.121 -10041333.737 10 0 60953 10800.00000 0 20419645.039 -8288220.651 -12813235.639 10 0 60953 11700.00000 0 19035262.919 -7231509.983 -15335765.067 10 0 60953 12600.00000 0 17520476.965 -5874451.532 -17559835.479 10 0 60953 13500.00000 0 15937293.391 -4224592.046 -19442184.290 10 0 60953 14400.00000 0 14346947.675 -2302023.016 -20946217.164 10 0 60953 15300.00000 0 12807359.242 -138801.885 -22042720.034 10 0 60953 16200.00000 0 11370746.797 2222132.499 -22710425.187 10 0 60953 17100.00000 0 10081504.376 4728505.496 -22936420.818 10 0 60953 18000.00000 0 8974426.850 7320649.224 -22716396.546 10 0 60953 18900.00000 0 8073358.607 9933761.443 -22054720.739 10 0 60953 19800.00000 0 7390321.035 12500386.964 -20964348.650 10 0 60953 20700.00000 0 6925154.188 14953018.574 -19466563.648 10 0 60953 21600.00000 0 6665686.288 17226709.584 -17590556.969 10 0 60953 22500.00000 0 6588422.461 19261589.663 -15372854.402 10 0 60953 23400.00000 0 6659722.392 21005179.741 -12856601.340 10 0 60953 24300.00000 0 6837415.960 22414410.136 -10090720.199 10 0 60953 25200.00000 0 7072787.655 23457258.576 -7128956.775 10 0 60953 26100.00000 0 7312845.116 24113940.593 -4028834.207 10 0 60953 27000.00000 0 7502775.280 24377603.606 -850535.071 10 0 60953 27900.00000 0 7588483.861 24254496.725 2344266.563 10 0 60953 28800.00000 0 7519110.509 23763610.271 5493600.254 10 0 60953 29700.00000 0 7249413.169 22935801.128 8536398.259 10 0 60953 30600.00000 0 6741920.806 21812441.463 11413675.369 10 0 60953 31500.00000 0 5968763.501 20443648.108 14069666.815 10 0 60953 32400.00000 0 4913102.558 18886167.183 16452902.618 10 0 60953 33300.00000 0 3570100.021 17201002.617 18517198.135 10 0 60953 34200.00000 0 1947386.235 15450887.634 20222542.289 10 0 60953 35100.00000 0 65004.943 13697704.415 21535867.097 10 0 60953 36000.00000 0 -2045163.046 11999959.074 22431684.324 10 0 60953 36900.00000 0 -4340474.971 10410416.543 22892577.610 10 0 60953 37800.00000 0 -6769056.913 8973993.182 22909540.973 10 0 60953 38700.00000 0 -9271728.337 7725994.218 22482157.299 10 0 60953 39600.00000 0 -11784242.117 6690768.859 21618613.177 10 0 60953 40500.00000 0 -14239748.624 5880838.716 20335549.302 10 0 60953 41400.00000 0 -16571382.921 5296535.601 18657748.491 10 0 60953 42300.00000 0 -18714868.570 4926163.765 16617666.352 10 0 60953 43200.00000 0 -20611030.435 4746679.757 14254812.519 10 0 60953 44100.00000 0 -22208112.123 4724861.468 11614993.312 10 0 60953 45000.00000 0 -23463801.207 4818917.256 8749429.524 10 0 60953 45900.00000 0 -24346877.333 4980467.311 5713765.743 10 0 60953 46800.00000 0 -24838413.599 5156813.401 2566990.037 10 0 60953 47700.00000 0 -24932480.127 5293400.571 -629714.970 10 0 60953 48600.00000 0 -24636319.682 5336365.860 -3814166.918 10 0 60953 49500.00000 0 -23969987.396 5235064.974 -6924400.505 10 0 60953 50400.00000 0 -22965469.645 4944468.672 -9899881.612 10 0 60953 51300.00000 0 -21665319.114 4427325.853 -12682694.087 10 0 60953 52200.00000 0 -20120863.854 3656000.302 -15218675.119 10 0 60953 53100.00000 0 -18390066.179 2613901.919 -17458476.149 10 0 60953 54000.00000 0 -16535122.009 1296450.490 -19358528.065 10 0 60953 54900.00000 0 -14619902.195 -288469.884 -20881891.525 10 0 60953 55800.00000 0 -12707343.782 -2120585.951 -21998975.759 10 0 60953 56700.00000 0 -10856900.934 -4167837.831 -22688112.053 10 0 60953 57600.00000 0 -9122162.338 -6387484.407 -22935971.160 10 0 60953 58500.00000 0 -7548734.577 -8727665.860 -22737817.006 10 0 60953 59400.00000 0 -6172479.395 -11129358.529 -22097592.326 10 0 60953 60300.00000 0 -5018177.592 -13528640.858 -21027835.132 10 0 60953 61200.00000 0 -4098674.229 -15859176.187 -19549428.079 10 0 60953 62100.00000 0 -3414539.381 -18054809.181 -17691186.018 10 0 60953 63000.00000 0 -2954257.055 -20052167.977 -15489290.022 10 0 60953 63900.00000 0 -2694932.629 -21793163.867 -12986579.115 10 0 60953 64800.00000 0 -2603487.455 -23227284.677 -10231713.646 10 0 60953 65700.00000 0 -2638288.857 -24313586.646 -7278226.674 10 0 60953 66600.00000 0 -2751145.513 -25022302.165 -4183482.027 10 0 60953 67500.00000 0 -2889582.996 -25335996.907 -1007559.378 10 0 60953 68400.00000 0 -2999302.540 -25250228.720 2187911.795 10 0 60953 69300.00000 0 -3026718.600 -24773681.488 5340946.610 10 0 60953 70200.00000 0 -2921467.581 -23927769.201 8390404.246 10 0 60953 71100.00000 0 -2638781.543 -22745727.499 11277169.325 10 0 60953 72000.00000 0 -2141626.506 -21271231.284 13945292.438 10 0 60953 72900.00000 0 -1402515.009 -19556596.638 16343068.125 10 0 60953 73800.00000 0 -404916.309 -17660642.272 18424029.997 10 0 60953 74700.00000 0 855795.536 -15646299.719 20147844.403 10 0 60953 75600.00000 0 2371896.196 -13578071.545 21481086.116 10 0 60953 76500.00000 0 4123387.898 -11519442.883 22397881.819 10 0 60953 77400.00000 0 6078596.605 -9530353.303 22880409.546 10 0 60953 78300.00000 0 8195266.153 -7664833.330 22919244.910 10 0 60953 79200.00000 0 10422105.469 -5968903.039 22513547.559 10 0 60953 80100.00000 0 12700726.166 -4478819.369 21671084.100 10 0 60953 81000.00000 0 14967891.607 -3219744.375 20408086.549 10 0 60953 81900.00000 0 17157985.366 -2204889.402 18748948.234 10 0 60953 82800.00000 0 19205597.535 -1435170.502 16725762.001 10 0 60953 83700.00000 0 21048122.020 -899389.285 14377708.542 10 0 60953 84600.00000 0 22628256.831 -574931.475 11750305.509 10 0 60953 85500.00000 0 23896303.035 -428953.735 8894531.030 10 0 60954 0.00000 0 24812165.732 -420008.661 5865838.153 10 0 60954 900.00000 0 25346972.951 -500039.169 2723077.302 10 0 60954 1800.00000 0 25484242.666 -616657.504 -472648.205 10 0 60954 2700.00000 0 25220549.511 -715611.807 -3659176.373 10 0 60954 3600.00000 0 24565661.096 -743334.783 -6774502.558 10 0 60954 4500.00000 0 23542138.199 -649465.341 -9757994.289 10 0 60954 5400.00000 0 22184415.170 -389235.006 -12551579.943 10 0 60954 6300.00000 0 20537399.183 74383.371 -15100887.142 10 0 60954 7200.00000 0 18654647.355 768857.018 -17356307.810 10 0 60954 8100.00000 0 16596198.726 1710683.021 -19273968.491 10 0 60954 9000.00000 0 14426152.501 2904447.254 -20816586.692 10 0 60954 9900.00000 0 12210094.596 4342393.248 -21954196.454 10 0 60954 10800.00000 0 10012480.546 6004520.027 -22664729.217 10 0 60954 11700.00000 0 7894084.339 7859205.580 -22934439.071 10 0 60954 12600.00000 0 5909619.627 9864330.384 -22758164.610 10 0 60954 13500.00000 0 4105632.148 11968854.370 -22139422.872 10 0 60954 14400.00000 0 2518750.440 14114781.746 -21090334.091 10 0 60954 15300.00000 0 1174366.747 16239431.789 -19631379.201 10 0 60954 16200.00000 0 85801.703 18277920.988 -17790995.202 10 0 60954 17100.00000 0 -746013.968 20165753.087 -15605016.534 10 0 60954 18000.00000 0 -1332329.203 21841409.043 -13115973.531 10 0 60954 18900.00000 0 -1695844.490 23248828.942 -10372261.779 10 0 60954 19800.00000 0 -1869498.242 24339682.423 -7427198.619 10 0 60954 20700.00000 0 -1894820.340 25075333.017 -4337985.334 10 0 60954 21600.00000 0 -1819923.592 25428414.610 -1164595.331 10 0 60954 22500.00000 0 -1697218.967 25383954.570 2031389.941 10 0 60954 23400.00000 0 -1580951.917 24939997.007 5187974.533 10 0 60954 24300.00000 0 -1524664.425 24107700.624 8243947.811 10 0 60954 25200.00000 0 -1578690.325 22910907.547 11140067.271 10 0 60954 26100.00000 0 -1787789.868 21385201.570 13820201.639 10 0 60954 27000.00000 0 -2189023.420 19576495.432 16232412.445 10 0 60954 27900.00000 0 -2809954.064 17539206.117 18329953.696 10 0 60954 28800.00000 0 -3667254.983 15334094.155 20072170.959 10 0 60954 29700.00000 0 -4765780.573 13025856.468 21425283.217 10 0 60954 30600.00000 0 -6098140.992 10680572.302 22363033.151 10 0 60954 31500.00000 0 -7644798.932 8363107.604 22867193.892 10 0 60954 32400.00000 0 -9374685.851 6134584.745 22927922.935 10 0 60954 33300.00000 0 -11246313.464 4050021.655 22543956.529 10 0 60954 34200.00000 0 -13209335.741 2156237.511 21722640.651 10 0 60954 35100.00000 0 -15206497.965 490111.109 20479797.485 10 0 60954 36000.00000 0 -17175893.187 -922736.338 18839429.187 10 0 60954 36900.00000 0 -19053433.264 -2068779.672 16833263.659 10 0 60954 37800.00000 0 -20775432.410 -2946914.935 14500149.993 10 0 60954 38700.00000 0 -22281195.887 -3568257.902 11885314.127 10 0 60954 39600.00000 0 -23515505.709 -3955424.643 9039488.160 10 0 60954 40500.00000 0 -24430898.884 -4141324.581 6017929.473 10 0 60954 41400.00000 0 -24989642.182 -4167517.228 2879348.265 10 0 60954 42300.00000 0 -25165319.417 -4082202.333 -315235.655 10 0 60954 43200.00000 0 -24943963.379 -3937929.074 -3503684.263 10 0 60954 44100.00000 0 -24324683.899 -3789122.120 -6623957.039 10 0 60954 45000.00000 0 -23319764.492 -3689530.415 -9615326.424 10 0 60954 45900.00000 0 -21954222.883 -3689708.033 -12419568.330 10 0 60954 46800.00000 0 -20264853.458 -3834635.093 -14982103.520 10 0 60954 47700.00000 0 -18298791.602 -4161580.837 -17253066.710 10 0 60954 48600.00000 0 -16111660.309 -4698300.554 -19188281.940 10 0 60954 49500.00000 0 -13765376.997 -5461643.680 -20750124.856 10 0 60954 50400.00000 0 -11325712.699 -6456632.826 -21908254.984 10 0 60954 51300.00000 0 -8859705.982 -7676053.357 -22640203.946 10 0 60954 52200.00000 0 -6433039.713 -9100571.443 -22931808.558 10 0 60954 53100.00000 0 -4107490.069 -10699376.094 -22777480.864 10 0 60954 54000.00000 0 -1938553.751 -12431318.626 -22180310.455 10 0 60954 54900.00000 0 26648.433 -14246502.035 -21151997.595 10 0 60954 55800.00000 0 1751105.253 -16088253.898 -19712618.949 10 0 60954 56700.00000 0 3209215.073 -17895400.333 -17890230.858 10 0 60954 57600.00000 0 4387599.585 -19604745.978 -15720318.143 10 0 60954 58500.00000 0 5285399.007 -21153656.263 -13245099.369 10 0 60954 59400.00000 0 5914038.329 -22482633.987 -10512702.264 10 0 60954 60300.00000 0 6296476.302 -23537782.460 -7576225.393 10 0 60954 61200.00000 0 6465970.519 -24273052.153 -4492704.549 10 0 60954 62100.00000 0 6464412.185 -24652176.944 -1322004.074 10 0 60954 63000.00000 0 6340302.106 -24650219.058 1874345.204 10 0 60954 63900.00000 0 6146454.378 -24254658.207 5034338.664 10 0 60954 64800.00000 0 5937525.477 -23465979.597 8096697.992 10 0 60954 65700.00000 0 5767473.589 -22297736.405 11002055.458 10 0 60954 66600.00000 0 5687055.712 -20776084.310 13694099.556 10 0 60954 67500.00000 0 5741468.221 -18938807.571 16120660.166 10 0 60954 68400.00000 0 5968230.392 -16833877.214 18234712.776 10 0 60954 69300.00000 0 6395400.045 -14517601.114 19995282.969 10 0 60954 70200.00000 0 7040196.484 -12052442.496 21368234.446 10 0 60954 71100.00000 0 7908088.941 -9504596.793 22326926.110 10 0 60954 72000.00000 0 8992389.378 -6941426.628 22852726.145 10 0 60954 72900.00000 0 10274367.585 -4428860.339 22935373.635 10 0 60954 73800.00000 0 11723885.004 -2028860.821 22573180.917 10 0 60954 74700.00000 0 13300522.150 202931.329 21773072.636 10 0 60954 75600.00000 0 14955154.060 2219283.589 20550460.269 10 0 60954 76500.00000 0 16631909.488 3983100.428 18928953.768 10 0 60954 77400.00000 0 18270433.332 5468724.104 16939914.901 10 0 60954 78300.00000 0 19808358.798 6662753.682 14621859.799 10 0 60954 79200.00000 0 21183886.604 7564348.428 12019721.118 10 0 60954 80100.00000 0 22338363.412 8185003.163 9183983.149 10 0 60954 81000.00000 0 23218751.195 8547805.249 6169705.866 10 0 60954 81900.00000 0 23779883.285 8686204.786 3035456.434 10 0 60954 82800.00000 0 23986411.280 8642350.222 -157831.064 10 0 60954 83700.00000 0 23814359.775 8465060.252 -3348045.207 10 0 60954 84600.00000 0 23252222.121 8207518.508 -6473112.314 10 0 60954 85500.00000 0 22301549.808 7924789.611 -9472212.460 99